Skip Page Navigation
NASA JPL Caltech
NASA Logo - Jet Propulsion Laboratory + View the NASA Portal
+ Center for Near-Earth Object Studies
JPL Home Earth Solar System Stars & Galaxies Technology
JPL Solar System Dynamics
BODIES ORBITS EPHEMERIDES TOOLS PHYSICAL DATA DISCOVERY FAQ SITE MAP
JPL Small-Body Database Browser
Search: [ help ]  
58631 (1997 WE2)
Classification: Main-belt Asteroid          SPK-ID: 2058631
Ephemeris | Orbit Diagram | Orbital Elements | Mission Design | Physical Parameters | Discovery Circumstances ]

[ show orbit diagram ]
Orbital Elements at Epoch 2459000.5 (2020-May-31.0) TDB
Reference: JPL 26 (heliocentric ecliptic J2000)
 Element Value Uncertainty (1-sigma)   Units 
e .2145284042302383 4.8385e-08  
a 2.357529459887905 9.5439e-09 au
q 1.851772426932377 1.1095e-07 au
i 9.72778371418649 4.4949e-06 deg
node 74.86030772127944 2.0998e-05 deg
peri 294.7404655946604 2.332e-05 deg
M 120.7015148052969 1.3017e-05 deg
tp 2458557.203462352406
(2019-Mar-14.70346235)
4.6144e-05 TDB
period 1322.160320941808
3.62
8.0287e-06
2.198e-08
d
yr
n .2722816547266846 1.6534e-09 deg/d
Q 2.863286492843432 1.1591e-08 au
  Orbit Determination Parameters
   # obs. used (total)      1199  
   data-arc span      8188 days (22.42 yr)  
   first obs. used      1997-11-23  
   last obs. used      2020-04-24  
   planetary ephem.      DE431  
   SB-pert. ephem.      SB431-N16  
   condition code      0  
   norm. resid. RMS      .51941  
   source      ORB  
   producer      Otto Matic  
   solution date      2020-May-20 11:38:04  

Additional Information
 Earth MOID = .877029 au 
 Jupiter MOID = 2.64858 au 
 T_jup = 3.503 
[ show covariance matrix ]

Ephemeris | Orbit Diagram | Orbital Elements | Mission Design | Physical Parameters | Discovery Circumstances ]

Physical Parameter Table
Parameter Symbol Value Units Sigma Reference Notes
absolute magnitude H 14.76   n/a E2021B10  
diameter diameter 7.348 km 0.128 urn:nasa:pds:neowise_diameters_albedos::2.0[mainbelt] (http://adsabs.harvard.edu/abs/2011ApJ...741...68M)  
rotation period rot_per 9.98306 h n/a LCDB (Rev. 2020-October); Warner et al., 2009 sidereal period (not synodic); Result based on less than full coverage, so that the period may be wrong by 30 percent or so.
Published Reference List:
[Durech, J.; Hanus, J.; Ali-Lagoa, V. (2018) Astron. Astrophys. 617, A57.]
geometric albedo albedo 0.052   0.007 urn:nasa:pds:neowise_diameters_albedos::2.0[mainbelt] (http://adsabs.harvard.edu/abs/2011ApJ...741...68M)  

58631 (1997 WE2)          Discovered 1997-Nov-23 by Kobayashi, T. at Oizumi
Reference: 20030614/Numbers.arcLast Updated: 2004-04-19

Alternate Designations
 1997 WE2 = 2001 XC27 
Ephemeris | Orbit Diagram | Orbital Elements | Mission Design | Physical Parameters | Discovery Circumstances ]
ABOUT SSD CREDITS/AWARDS PRIVACY/COPYRIGHT GLOSSARY LINKS
FirstGov 2021-Feb-27 05:03 UT
(server date/time)  
NASA Home Page
Site Manager:   Ryan S. Park
Webmaster  Alan B. Chamberlin